[Iaude] MPEC V147: 2023 VQ4 [a=1.40,e=0.32,i=6.0,H=23.6]
    mpec at marsden.cfa.harvard.edu 
    mpec at marsden.cfa.harvard.edu
       
    Thu Nov  9 17:29:23 EST 2023
    
    
  
M.P.E.C. 2023-V147                             Issued 2023 November 9, 22:26 UT
     The Minor Planet Electronic Circulars contain information on unusual
         minor planets, routine data on comets and natural satellites,
         and occasional editorial announcements.  They are published
    on behalf of Division F of the International Astronomical Union by the
          Minor Planet Center, Smithsonian Astrophysical Observatory,
                          Cambridge, MA 02138, U.S.A.
			  
             Prepared using the Tamkin Foundation Computer Network
                              MPC at CFA.HARVARD.EDU
            URL https://www.minorplanetcenter.net/    ISSN 1523-6714
                                    2023 VQ4                                    
Observations:
     K23V04Q* C2023 11 08.57668109 47 19.440+52 51 51.05         18.95oVEV147T05
     K23V04Q  C2023 11 08.57986109 47 14.635+52 52 18.98         18.65oVEV147T05
     K23V04Q  C2023 11 08.58822309 47 01.896+52 53 32.50         18.66oVEV147T05
     K23V04Q  C2023 11 08.60062109 46 43.025+52 55 19.42         18.09oVEV147T05
     K23V04Q IC2023 11 08.87570509 40 25.41 +53 23 53.1          18.4 GVEV147L01
     K23V04Q KC2023 11 08.87780809 40 22.81 +53 24 09.9          19.4 GVEV147L01
     K23V04Q KC2023 11 08.88015909 40 19.81 +53 24 28.4          20.0 GVEV147L01
     K23V04Q 1C2023 11 08.89979 09 39 52.60 +53 26 55.7          19.9 VXEV147033
     K23V04Q 1C2023 11 08.90025 09 39 51.97 +53 26 59.1          19.2 VXEV147033
     K23V04Q 1C2023 11 08.90072 09 39 51.38 +53 27 02.9          19.5 VXEV147033
     K23V04Q 1C2023 11 08.90123 09 39 50.75 +53 27 06.8          19.4 VXEV147033
     K23V04Q KC2023 11 08.93636 09 39 09.43 +53 32 07.7          18.9 VqEV147L90
     K23V04Q KC2023 11 08.94433 09 38 59.10 +53 33 11.6          19.0 VqEV147L90
     K23V04Q KC2023 11 08.95231 09 38 48.68 +53 34 14.8          19.1 VqEV147L90
     K23V04Q 6C2023 11 09.21179209 32 51.278+54 05 54.09         18.7 GVEV147Z84
     K23V04Q 6C2023 11 09.21380409 32 48.394+54 06 08.24         18.8 GVEV147Z84
     K23V04Q KC2023 11 09.39892909 28 54.62 +54 24 29.4          19.1 GVEV147H21
     K23V04Q KC2023 11 09.39958309 28 53.71 +54 24 33.7          18.9 GVEV147H21
     K23V04Q KC2023 11 09.40237709 28 49.81 +54 24 52.3          18.8 GVEV147H21
     K23V04Q KB2023 11 09.40425 09 28 49.68 +54 24 53.0          18.6 GXEV147H36
     K23V04Q KC2023 11 09.40461409 28 46.64 +54 25 06.9          18.1 GVEV147H21
     K23V04Q KB2023 11 09.41031 09 28 41.27 +54 25 33.5          18.4 GXEV147H36
     K23V04Q KB2023 11 09.41598 09 28 33.33 +54 26 11.2          18.3 GXEV147H36
     K23V04Q mC2023 11 09.49957609 26 42.324+54 35 08.52         19.22GVEV147I52
     K23V04Q mC2023 11 09.49982909 26 41.996+54 35 09.78         19.36GVEV147I52
     K23V04Q mC2023 11 09.50008009 26 41.590+54 35 11.44         19.12GVEV147I52
     K23V04Q mC2023 11 09.50034709 26 41.219+54 35 13.13         18.79GVEV147I52
     K23V04Q KC2023 11 09.88559809 18 50.33 +55 06 12.7          18.6 GXEV147L18
     K23V04Q KC2023 11 09.89299609 18 41.32 +55 06 57.5          18.5 GXEV147L18
     K23V04Q KC2023 11 09.90031909 18 32.57 +55 07 41.2          19.1 GXEV147L18
Observer details:
033 Karl Schwarzschild Observatory, Tautenburg.  Observers S. Melnikov, C.
    Hogner, F. Ludwig, M. Hartmann, B. Stecklum.  Measurer B. Stecklum.
    1.34-m f/3 Schmidt + CCD.
H21 Astronomical Research Observatory, Westfield.  Observer R. Holmes.
    Measurers T. Linder, R. Holmes, L. Horn.  0.76-m f/3.0 astrograph + CCD.
H36 Sandlot Observatory, Scranton.  Observer G. Hug.  0.56-m f/4.8 reflector +
    CMO.
I52 Steward Observatory, Mt. Lemmon Station.  Observer H. Groeller.  Measurers
    E. C. Beshore, D. Fay, J. B. Fazekas, D. C. Fuls, A. R. Gibbs, A. D.
    Grauer, H. Groeller, J. K. Hogan, R. A. Kowalski, S. M. Larson, G. J.
    Leonard, D. Rankin, R. L. Seaman, F. C. Shelly, K. W. Wierzchos.  1.0-m
    prime focus + CCD.
L01 Visnjan Observatory, Tican.  Observer K. Korlevic.  1.0-m f/2.9 reflector
    + CCD.
L18 QOS Observatory, Zalistsi.  Observers T. A. Bezluschenko, O. V.
    Kravchenko.  Measurer A. M. Kozhukhov.  0.50-m f/3.8 reflector + CCD.
L90 ABObservatory, Rosarno.  Observer A. Brosio.  0.30-m f/4.0 reflector +
    CCD.
T05 ATLAS-HKO, Haleakala.  Observers L. Denneau, R. Siverd, J. Tonry, H.
    Weiland.  Measurers L. Denneau, N. Erasmus, A. Fitzsimmons, A. Lawrence,
    J. Robinson, R. Siverd, J. Tonry, H. Weiland.  0.5-m Reflector + CCD.
Z84 Calar Alto-Schmidt.  Observers M. Micheli, R. Kresken.  Measurers R.
    Kresken, M. Micheli, F. Ocana, L. Conversi.  0.8-m f/3 Schmidt + CCD.
Orbital elements:
2023 VQ4                                                 Earth MOID = 0.0135 AU
Epoch 2023 Sept. 13.0 TT = JDT 2460200.5                MPC                     
M 343.39515              (2000.0)            P               Q                  
n   0.59633420     Peri.  336.45283     +0.97274547     -0.22341817             
a   1.3979004      Node    36.63147     +0.22582551     +0.85207838             
e   0.3183265      Incl.    5.96954     +0.05262222     +0.47333578             
P   1.65           H   23.69          G   0.15           U   7                  
Residuals in seconds of arc
231108 T05  0.1-  0.5-    231108 033  0.7+  0.0     231109 H21  0.3-  0.0
231108 T05  0.0   0.4-    231108 L90 (6.5-  1.2+)   231109 H36  0.1-  0.4+
231108 T05  0.5-  0.4+    231108 L90 (5.7-  1.4+)   231109 H36  0.4-  0.5+
231108 T05  0.2-  0.7+    231108 L90 (5.0-  1.0+)   231109 I52  0.1+  0.2+
231108 L01  0.3-  0.3-    231109 Z84  0.0   0.4-    231109 I52  0.4+  0.1-
231108 L01  0.3+  0.0     231109 Z84  0.3+  0.2+    231109 I52  0.1-  0.0
231108 L01  0.1+  0.1+    231109 H21  0.0   0.0     231109 I52  0.0   0.0
231108 033  0.8+  0.1+    231109 H21  0.0   0.1-    231109 L18  1.6+  0.8-
231108 033  0.4+  0.1-    231109 H21  0.1+  0.1+    231109 L18  0.2-  0.2+
231108 033  0.5+  0.0     231109 H36  0.2-  0.2+    231109 L18  0.2-  0.5+
Ephemeris:
2023 VQ4                 a,e,i = 1.40, 0.32, 6                   q = 0.9529
Date    TT    R. A. (2000) Decl.     Delta      r    Elong.  Phase     V
2023 10 10    16 06 21.3 -48 10 55   0.09143 0.9530    57.6   117.8    23.1
...
2023 10 25    15 01 24.3 -36 07 23   0.03585 0.9632    28.5   150.5    24.9
...
2023 11 02    12 43 23.2 +13 25 13   0.01859 0.9778    37.8   141.5    22.1
...
2023 11 08    10 00 39.9 +51 28 29   0.02964 0.9926    92.2    86.1    19.1
2023 11 09    09 37 23.0 +53 41 38   0.03264 0.9953    97.1    81.0    19.1
2023 11 10    09 16 14.1 +55 18 03   0.03578 0.9981   101.3    76.7    19.1
...
2023 11 16    07 47 56.1 +58 45 53   0.05606 1.0166   118.0    59.2    19.6
...
2023 11 24    06 48 03.1 +58 29 43   0.08485 1.0450   130.9    45.6    20.2
...
2023 12 09    05 53 15.5 +55 18 33   0.1435  1.1069   146.0    29.9    21.0
A. U. Tomatic                (C) Copyright 2023 MPC           M.P.E.C. 2023-V147
    
    
More information about the Iaude
mailing list